Starlink 5869

operational
NORAD ID: 57061 Int'l Des: 2023-088 Owner: SPXS Country: US Constellation: starlink
LEOCIRCULAR

About Starlink 5869

Description loading...

Live Position

Loading 3D Globe...

Upcoming Passes

Altitude History

Altitude vs Time

uPlot chart will show altitude changes over time

Two-Line Element Set

1 57061U 23088P 25305.66041471 -.00000172 00000-0 23199-5 0 9994
2 57061 43.0032 82.8973 0001233 270.5028 89.5673 15.02536407130132
Epoch: Nov 1, 2025 • Age: 12 hours

Current Status

Altitude 562.4 km
Velocity 7.59 km/s
Sub-Earth Point 40.13°N, 102°E
Launch Date Jun 22, 2023
Age 2.3 years
Type internet

Technical Details

Classification Payload
Mass 305.00 kg
Dry Mass 290.00 kg
Total Mass 305.00 kg
Length 0.20 m
Diameter 2.80 m
Span 9.00 m
Shape Box + pan
Manufacturer SPXS
Bus Type Starlink
Phase Status In Orbit
Owner/State SPXS/US

Large Constellations

Loading constellations...